NOAA 16 DEB, 41079

Orbit data source: Space-Track

NOAA 16 DEB, 41079 is space debris in SSO originally from a launch on Thu, 21 Sep 2000 UTC launched from the Air Force Western Test Range (AFWTR). Debris objects in space refer to the collection of defunct objects orbiting the Earth. Examples of debris include non-operational satellites, rocket bodies, and fragments generated from explosions, collisions, or faulty payload assembly.

Loading next visibility...
Identifier
41079, 2000-055AN
Orbit
SSO
Country
Flag of USUS
Related business
Manufacturer
Unknown
Mission
Spacecraft
Bus & Motor
Unknown
Mass
Unknown
Launch date (UTC)
2000-09-21 (26 years ago)
Launch vehicle
Unknown
Launch site
Air Force Western Test Range (AFWTR)
Object type
Payload
Rocket body
Debris
Shape & HBR
Unknown shape, 0.1 m
Radar Cross Section
Medium (>0.1 m² and <1 m²)

Expand to show TLE details & history
Last TLE update: 2 days ago

TLE from 2 days ago
0 NOAA 16 DEB
1 41079U 00055AN  26171.31687139  .00000356  00000-0  32962-3 0  9995
2 41079  99.1139 113.5035 0143986  19.8927 340.7764 13.84210503532895
Epoch: 2026-06-20T07:36Z
TLE epoch observation values (Epoch: 2026-06-20T07:36:17.688Z)
Latitude
-0.00003°
Longitude
90.89657°
Altitude
852.374 km
Speed
7.477 km/s
True Right ascension
07h 34m 00s
True Declination
0° 00' 00"
Sunlit
Object was in daylight at epoch
Visualization orbit readout
Latitude
Unknown
Longitude
Unknown
Altitude
Unknown
Speed
Unknown
Apparent Right ascension
Unknown
Apparent Declination
Unknown
Sunlit
N/A
Visualization observer readout
Local Sidereal Time
21:57:16
Azimuth
Unknown
Elevation
Unknown
Doppler factor
Unknown
Orbital elements
Apogee altitude
1,051.676 km
Perigee altitude
840.755 km
Semi-major axis
7,324.353 km
Eccentricity
0.0144
Inclination
99.1139°
RAAN
113.5035°
Arg. of periapsis
19.8927°
True anomaly
340.22377°
Mean anomaly
340.7764°
Eccentric anomaly
340.50103°
Mean motion
3.4625 °/min
Orbital period
103.97 mins
BSTAR
0.00032962
Loading maneuver chart data...
Computing Atmospheric mass density...
Loading historical data...
Loading historical data...
Loading historical data...
Loading historical data...
Loading historical data...
Loading historical data...
Loading historical data...

Documentation

Showing up to 5 results
|